Zurück zum Katalog

SL-14 DEB

AktivPO
NORAD 45309·DEBRIS·🇷🇺 Russia

Gestartet Aug 15, 1991 von Plesetsk Cosmodrome

Loading…

Nächste Überflüge (nächste 24 Stunden)

TLE

AktuellSource: Space-Track

Epoche: Sep 13, 2026, 14:05 UTC

1 45309U 91056AX  26256.58688808  .00004248  00000-0  93676-2 0  9995
2 45309  82.6198 100.6889 0110390 127.4590 233.6641 13.25653018315379

Verfolge SL-14 DEB in Echtzeit mit AllMySat

Download on the App Store